Location: Castiglione Fibocchi
(43.5333°N, 11.7667°E)
Time: 13:54:08
(UTC+00:00)

Cosmos 2058 Rocket - Pass Details

Date: 15 August 2020
Orbit: 610 x 639 km, 82.5° (Epoch: 24 September)

Event Time Altitude Azimuth Distance (km) Brightness Sun altitude
Exits shadow 02:41:30 14° 180° (S) 1,752 5.0 -16.1°
Maximum altitude 02:45:17 75° 97° (E) 656 3.2 -15.5°
Drops below altitude 10° 02:49:44 10° 12° (NNE) 2,007 6.4 -14.9°
Sets 02:51:58 0° 11° (N) 2,913 7.3 -14.6°
